Change the Weather History Date:

Tuesday, September 25, 2012

  Actual Average Record
Temperature  
Mean Temperature 60 °F -  
Max Temperature 82 °F 68 °F 87 °F (2001)
Min Temperature 38 °F 40 °F 37 °F (1997)
Degree Days  
Heating Degree Days 5    
Growing Degree Days 10 (Base 50)    
Moisture  
Dew Point 35 °F    
Average Humidity 45    
Maximum Humidity 81    
Minimum Humidity 9    
Precipitation  
Precipitation 0.00 in - - ()
Sea Level Pressure  
Sea Level Pressure 30.02 in    
Wind  
Wind Speed 3 mph ()    
Max Wind Speed 7 mph    
Max Gust Speed -    
Visibility 12.0 miles    
Events      
Averages and records for this station are not official NWS values.
T = Trace of Precipitation, MM = Missing Value Source: Averaged Metar Reports

Daily Weather History Graph

Daily Weather History Graph

Search for Another Location

Airport or City:

Trip Planner

Search our weather history database for the weather conditions in past years. The results will help you decide how hot, cold, wet, or windy it might be!

Date:

Astronomy

Sep. 25, 2012 Rise Set
Actual Time 6:28 AM EEST 6:30 PM EEST
Civil Twilight 6:02 AM EEST 6:56 PM EEST
Nautical Twilight 5:31 AM EEST 7:27 PM EEST
Astronomical Twilight 4:59 AM EEST 7:58 PM EEST
Moon 3:39 PM EEST (9/25) 1:30 AM EEST (9/25)
Length of Visible Light 12h 54m
Length of Day
12h 01m
Waxing Gibbous, 77% of the Moon is Illuminated
Sep 25
Waxing Gibbous
Sep 30
Full
Oct 8
Last Quarter
Oct 15
New
Oct 22
First Quarter

Hourly Weather History & Observations

Time (EEST) Temp. Windchill Dew Point Humidity Pressure Visibility Wind Dir Wind Speed Gust Speed Precip Events Conditions
12:20 AM 46.4 °F 45.2 °F 37.4 °F 71% 30.04 in - NNE 3.5 mph - N/A   Clear
12:50 AM 48.2 °F - 37.4 °F 66% 30.04 in - NNE 2.3 mph - N/A   Clear
1:20 AM 48.2 °F - 37.4 °F 66% 30.04 in - NNE 4.6 mph - N/A   Clear
1:50 AM 46.4 °F 44.3 °F 37.4 °F 71% 30.04 in - NNE 4.6 mph - N/A   Clear
2:20 AM 46.4 °F 45.2 °F 37.4 °F 71% 30.04 in - NNE 3.5 mph - N/A   Clear
2:50 AM 46.4 °F 44.3 °F 37.4 °F 71% 30.04 in - NE 4.6 mph - N/A   Clear
3:00 AM 46 °F - 37 °F 62%  in 12 mi NE 4.6 mph - -  
3:20 AM 46.4 °F - 35.6 °F 66% 30.04 in - NNE 2.3 mph - N/A   Clear
3:50 AM 44.6 °F 42.2 °F 35.6 °F 71% 30.04 in - NNE 4.6 mph - N/A   Clear
4:20 AM 41.0 °F - 35.6 °F 81% 30.04 in - NE 1.2 mph - N/A   Clear
4:50 AM 42.8 °F - 37.4 °F 81% 30.04 in - NNE 1.2 mph - N/A   Clear
5:20 AM 42.8 °F 41.1 °F 35.6 °F 76% 30.04 in - NE 3.5 mph - N/A   Clear
5:50 AM 42.8 °F 41.1 °F 35.6 °F 76% 30.04 in - NE 3.5 mph - N/A   Clear
6:20 AM 41.0 °F 38.0 °F 35.6 °F 81% 30.04 in - NNE 4.6 mph - N/A   Clear
6:50 AM 41.0 °F - 35.6 °F 81% 30.04 in - NE 1.2 mph - N/A   Clear
7:20 AM 44.6 °F - 37.4 °F 76% 30.04 in - Calm Calm - N/A   Clear
7:50 AM 48.2 °F - 39.2 °F 71% 30.04 in - NE 3.5 mph - N/A   Clear
8:20 AM 53.6 °F - 39.2 °F 58% 30.04 in - Calm Calm - N/A   Clear
8:50 AM 57.2 °F - 37.4 °F 48% 30.04 in - Variable 1.2 mph - N/A   Clear
9:00 AM 57 °F - 36 °F 34%  in 12 mi NNE 1.2 mph - -  
9:20 AM 60.8 °F - 35.6 °F 39% 30.06 in - Variable 2.3 mph - N/A   Clear
9:50 AM 64.4 °F - 35.6 °F 34% 30.06 in - Calm Calm - N/A   Clear
10:20 AM 68.0 °F - 37.4 °F 33% 30.06 in - Variable 1.2 mph - N/A   Clear
10:50 AM 69.8 °F - 37.4 °F 31% 30.06 in - Variable 1.2 mph - N/A   Clear
11:20 AM 73.4 °F - 35.6 °F 25% 30.04 in - Variable 1.2 mph - N/A   Clear
11:50 AM 75.2 °F - 35.6 °F 24% 30.04 in - Variable 1.2 mph - N/A   Clear
12:20 PM 75.2 °F - 33.8 °F 22% 30.04 in - Variable 2.3 mph - N/A   Clear
12:50 PM 78.8 °F - 32.0 °F 18% 30.01 in - WNW 2.3 mph - N/A   Clear
1:20 PM 78.8 °F - 30.2 °F 17% 30.01 in - Variable 2.3 mph - N/A   Clear
1:50 PM 80.6 °F - 32.0 °F 17% 29.98 in - Variable 4.6 mph - N/A   Clear
2:20 PM 80.6 °F - 33.8 °F 18% 29.98 in - Variable 5.8 mph - N/A   Clear
2:50 PM 80.6 °F - 33.8 °F 18% 29.98 in - Variable 2.3 mph - N/A   Clear
3:00 PM 81 °F - 33 °F 9%  in 12 mi SSW 2.3 mph - -  
3:20 PM 80.6 °F - 32.0 °F 17% 29.98 in - SW 4.6 mph - N/A   Clear
3:50 PM 82.4 °F - 32.0 °F 16% 29.98 in - WSW 6.9 mph - N/A   Clear
4:20 PM 82.4 °F - 28.4 °F 14% 29.98 in - West 6.9 mph - N/A   Clear
4:50 PM 80.6 °F - 26.6 °F 14% 29.98 in - West 6.9 mph - N/A   Clear
5:20 PM 80.6 °F - 26.6 °F 14% 29.98 in - WSW 5.8 mph - N/A   Clear
5:50 PM 78.8 °F - 26.6 °F 15% 29.98 in - WSW 4.6 mph - N/A   Clear
6:20 PM 75.2 °F - 28.4 °F 18% 29.98 in - WSW 3.5 mph - N/A   Clear
6:50 PM 68.0 °F - 30.2 °F 24% 29.98 in - Variable 1.2 mph - N/A   Clear
7:20 PM 66.2 °F - 33.8 °F 30% 29.98 in - Calm Calm - N/A   Clear
7:50 PM 64.4 °F - 37.4 °F 37% 30.01 in - SE 2.3 mph - N/A   Clear
8:20 PM 64.4 °F - 33.8 °F 32% 30.01 in - SE 1.2 mph - N/A   Clear
8:50 PM 59.0 °F - 39.2 °F 48% 30.01 in - Calm Calm - N/A   Clear
9:00 PM 60 °F - 39 °F 34%  in 12 mi Calm Calm - -  
9:20 PM 57.2 °F - 39.2 °F 51% 30.01 in - Calm Calm - N/A   Clear
10:20 PM 55.4 °F - 39.2 °F 54% 30.04 in - Calm Calm - N/A   Clear
10:50 PM 51.8 °F - 39.2 °F 62% 30.04 in - ENE 1.2 mph - N/A   Clear
11:20 PM 51.8 °F - 37.4 °F 58% 30.04 in - NNE 5.8 mph - N/A   Clear
11:50 PM 50.0 °F - 35.6 °F 58% 30.04 in - NNE 4.6 mph - N/A   Clear